QPF
0.00 0.00 0.00 0.00 0.00 0.00 0.00 0.00 0.00 0.00 0.00 0.00 0.00 0.00 0.00 0.00 0.00 0.00 0.00 0.00 0.00 0.00 0.00 0.00 0.00 0.00 0.00 0.00 0.00 0.00 0.00 0.00 0.00 0.00 0.00 0.00 0.00 0.00 0.00 0.00 0.00 0.00 0.00 0.00 0.00
0.00 0.00 0.00 0.00 0.00 0.00 0.00 0.00 0.00 0.00 0.00 0.00 0.00 0.00 0.00 0.00 0.00 0.00 0.00 0.00 0.00 0.00 0.00 0.00 0.00 0.00 0.00 0.00 0.00 0.00 0.00 0.00 0.00 0.00 0.00 0.00 0.00 0.00 0.00 0.00 0.00 0.00 0.00 0.00 0.00
0.00 0.00 0.00 0.00 0.00 0.00 0.00 0.00 0.00 0.00 0.00 0.00 0.00 0.00 0.00 0.00 0.00 0.00 0.00 0.00 0.00 0.00 0.00 0.00 0.00 0.00 0.00 0.00 0.00 0.00 0.00 0.00 0.00 0.00 0.00 0.00 0.00 0.00 0.00 0.00 0.00 0.00 0.00 0.00 0.00
0.00 0.00 0.00 0.00 0.00 0.00 0.00 0.00 0.00 0.00 0.00 0.00 0.00 0.00 0.00 0.00 0.00 0.00 0.00 0.00 0.00 0.00 0.00 0.00 0.00 0.00 0.00 0.00 0.00 0.00 0.00 0.00 0.00 0.00 0.00 0.00 0.00 0.00 0.00 0.00 0.00 0.00 0.00 0.00 0.00
0.00 0.00 0.00 0.00 0.00 0.00 0.00 0.00 0.00 0.00 0.00 0.00 0.00 0.00 0.00 0.00 0.00 0.00 0.00 0.00 0.00 0.00 0.00 0.00 0.00 0.00 0.00 0.00 0.00 0.00 0.00 0.00 0.00 0.00 0.00 0.00 0.00 0.00 0.00 0.00 0.00 0.00 0.00 0.00 0.00
0.00 0.00 0.00 0.00 0.00 0.00 0.00 0.00 0.00 0.00 0.00 0.00 0.00 0.00 0.00 0.00 0.00 0.00 0.00 0.00 0.00 0.00 0.00 0.00 0.00 0.00 0.00 0.00 0.00 0.00 0.00 0.00 0.00 0.00 0.00 0.00 0.00 0.00 0.00 0.00 0.00 0.00 0.00 0.00 0.00
0.00 0.00 0.00 0.00 0.00 0.00 0.00 0.00 0.00 0.00 0.00 0.00 0.00 0.00 0.00 0.00 0.00 0.00 0.00 0.00 0.00 0.00 0.00 0.00 0.00 0.00 0.00 0.00 0.00 0.00 0.00 0.00 0.00 0.00 0.00 0.00 0.00 0.00 0.00 0.00 0.00 0.00 0.00 0.00 0.00
0.00 0.00 0.00 0.00 0.00 0.00 0.00 0.00 0.00 0.00 0.00 0.00 0.00 0.00 0.00 0.00 0.00 0.00 0.00 0.00 0.00 0.00 0.00 0.00 0.00 0.00 0.00 0.00 0.00 0.00 0.00 0.00 0.00 0.00 0.00 0.00 0.00 0.00 0.00 0.00 0.00 0.00 0.00 0.00 0.00
0.00 0.00 0.00 0.00 0.00 0.00 0.00 0.00 0.00 0.00 0.00 0.00 0.00 0.00 0.00 0.00 0.00 0.00 0.00 0.00 0.00 0.00 0.00 0.00 0.00 0.00 0.00 0.00 0.00 0.00 0.00 0.00 0.00 0.00 0.00 0.00 0.00 0.00 0.00 0.00 0.00 0.00 0.00 0.00 0.00
0.00 0.00 0.00 0.00 0.00 0.00 0.00 0.00 0.00 0.00 0.00 0.00 0.00 0.00 0.00 0.00 0.00 0.00 0.00 0.00 0.00 0.00 0.00 0.00 0.00 0.00 0.00 0.00 0.00 0.00 0.00 0.00 0.00 0.00 0.00 0.00 0.00 0.00 0.00 0.00 0.00 0.00 0.00 0.00 0.00
0.00 0.00 0.00 0.00 0.00 0.00 0.00 0.00 0.00 0.00 0.00 0.00 0.00 0.00 0.00 0.00 0.00 0.00 0.00 0.00 0.00 0.00 0.00 0.00 0.00 0.00 0.00 0.00 0.00 0.00 0.00 0.00 0.00 0.00 0.00 0.00 0.00 0.00 0.00 0.00 0.00 0.00 0.00 0.00 0.00
0.00 0.00 0.00 0.00 0.00 0.00 0.00 0.00 0.00 0.00 0.00 0.00 0.00 0.00 0.00 0.00 0.00 0.00 0.00 0.00 0.00 0.00 0.00 0.00 0.00 0.00 0.00 0.00 0.00 0.00 0.00 0.00 0.00 0.00 0.00 0.00 0.00 0.00 0.00 0.00 0.00 0.00 0.00 0.00 0.00
0.00 0.00 0.00 0.00 0.00 0.00 0.00 0.00 0.00 0.00 0.00 0.00 0.00 0.00 0.00 0.00 0.00 0.00 0.00 0.00 0.00 0.00 0.00 0.00 0.00 0.00 0.00 0.00 0.00 0.00 0.00 0.00 0.00 0.00 0.00 0.00 0.00 0.00 0.00 0.00 0.00 0.00 0.00 0.00 0.00
0.00 0.00 0.00 0.00 0.00 0.00 0.00 0.00 0.00 0.00 0.00 0.00 0.00 0.00 0.00 0.00 0.00 0.00 0.00 0.00 0.00 0.00 0.00 0.00 0.00 0.00 0.00 0.00 0.00 0.00 0.00 0.00 0.00 0.00 0.00 0.00 0.00 0.00 0.00 0.00 0.00 0.00 0.00 0.00 0.00
0.00 0.00 0.00 0.00 0.00 0.00 0.00 0.00 0.00 0.00 0.00 0.00 0.00 0.00 0.00 0.00 0.00 0.00 0.00 0.00 0.00 0.00 0.00 0.00 0.00 0.00 0.00 0.00 0.00 0.00 0.00 0.00 0.00 0.00 0.00 0.00 0.00 0.00 0.00 0.00 0.00 0.00 0.00 0.00 0.00
0.00 0.00 0.00 0.00 0.00 0.00 0.00 0.00 0.00 0.00 0.00 0.00 0.00 0.00 0.00 0.00 0.00 0.00 0.00 0.00 0.00 0.00 0.00 0.00 0.00 0.00 0.00 0.00 0.00 0.00 0.00 0.00 0.00 0.00 0.00 0.00 0.00 0.00 0.00 0.00 0.00 0.00 0.00 0.00 0.00
0.00 0.00 0.00 0.00 0.00 0.00 0.00 0.00 0.00 0.00 0.00 0.00 0.00 0.00 0.00 0.00 0.00 0.00 0.00 0.00 0.00 0.00 0.00 0.00 0.00 0.00 0.00 0.00 0.00 0.00 0.00 0.00 0.00 0.00 0.00 0.00 0.00 0.00 0.00 0.00 0.00 0.00 0.00 0.00 0.00
0.00 0.00 0.00 0.00 0.00 0.01 0.01 0.00 0.00 0.00 0.00 0.00 0.00 0.00 0.00 0.00 0.00 0.00 0.00 0.00 0.00 0.00 0.00 0.00 0.00 0.00 0.00 0.00 0.00 0.00 0.00 0.00 0.00 0.00 0.00 0.00 0.00 0.00 0.00 0.00 0.00 0.00 0.00 0.00 0.00
0.00 0.00 0.00 0.00 0.00 0.02 0.03 0.00 0.00 0.00 0.00 0.00 0.00 0.00 0.00 0.00 0.00 0.00 0.00 0.00 0.00 0.00 0.00 0.00 0.00 0.00 0.00 0.00 0.00 0.00 0.00 0.00 0.00 0.00 0.00 0.00 0.00 0.00 0.00 0.00 0.00 0.00 0.00 0.00 0.00
0.00 0.00 0.00 0.00 0.00 0.03 0.04 0.00 0.00 0.00 0.00 0.00 0.00 0.00 0.00 0.00 0.00 0.00 0.00 0.00 0.00 0.00 0.00 0.00 0.00 0.00 0.00 0.00 0.00 0.00 0.00 0.00 0.00 0.00 0.00 0.00 0.00 0.00 0.00 0.00 0.00 0.00 0.00 0.00 0.00
0.00 0.00 0.00 0.00 0.01 0.02 0.01 0.00 0.00 0.00 0.00 0.00 0.00 0.01 0.00 0.01 0.02 0.02 0.02 0.00 0.00 0.00 0.00 0.00 0.00 0.00 0.00 0.00 0.00 0.00 0.00 0.00 0.00 0.00 0.00 0.00 0.00 0.00 0.00 0.00 0.00 0.00 0.00 0.00 0.00
0.00 0.00 0.00 0.01 0.02 0.01 0.00 0.00 0.00 0.00 0.00 0.00 0.01 0.01 0.00 0.00 0.01 0.02 0.01 0.00 0.00 0.01 0.01 0.02 0.02 0.00 0.00 0.00 0.00 0.00 0.00 0.00 0.00 0.00 0.00 0.00 0.00 0.00 0.00 0.00 0.00 0.00 0.00 0.00 0.00
0.00 0.00 0.00 0.01 0.01 0.00 0.00 0.00 0.00 0.00 0.00 0.01 0.01 0.01 0.01 0.01 0.02 0.00 0.00 0.00 0.00 0.01 0.02 0.03 0.03 0.02 0.00 0.00 0.00 0.00 0.00 0.00 0.00 0.00 0.00 0.00 0.00 0.00 0.00 0.00 0.00 0.00 0.00 0.00 0.00
0.00 0.00 0.00 0.01 0.00 0.00 0.00 0.00 0.00 0.00 0.01 0.02 0.02 0.02 0.02 0.01 0.01 0.02 0.00 0.00 0.00 0.00 0.00 0.02 0.02 0.02 0.01 0.00 0.00 0.00 0.00 0.00 0.00 0.00 0.00 0.00 0.00 0.00 0.00 0.00 0.00 0.00 0.00 0.00 0.00
0.00 0.00 0.00 0.00 0.00 0.00 0.00 0.00 0.00 0.00 0.00 0.01 0.02 0.02 0.03 0.02 0.00 0.01 0.00 0.00 0.00 0.00 0.00 0.01 0.01 0.00 0.00 0.01 0.00 0.00 0.00 0.00 0.00 0.00 0.00 0.00 0.00 0.00 0.00 0.00 0.00 0.00 0.00 0.00 0.00
0.00 0.00 0.00 0.00 0.00 0.00 0.00 0.00 0.00 0.00 0.00 0.00 0.01 0.00 0.00 0.00 0.00 0.00 0.00 0.00 0.00 0.00 0.00 0.00 0.00 0.00 0.00 0.00 0.00 0.00 0.00 0.00 0.00 0.00 0.00 0.00 0.00 0.00 0.00 0.00 0.00 0.00 0.00 0.00 0.00
0.00 0.00 0.00 0.00 0.00 0.00 0.00 0.00 0.00 0.00 0.00 0.00 0.00 0.00 0.00 0.00 0.00 0.00 0.00 0.00 0.00 0.00 0.00 0.00 0.00 0.00 0.00 0.00 0.00 0.00 0.00 0.00 0.00 0.00 0.00 0.00 0.00 0.00 0.00 0.00 0.00 0.00 0.00 0.00 0.00
MSLP
1019.91 1019.71 1019.45 1019.25 1019.04 1018.83 1018.69 1018.45 1018.20 1017.98 1017.77 1017.54 1017.26 1017.00 1016.76 1016.37 1015.94 1016.01 1015.41 1013.62 1013.73 1014.08 1014.45 1015.13 1015.37 1015.64 1015.95 1016.59 1017.12 1017.80 1018.77 1018.98 1018.03 1017.22 1015.59 1014.74 1014.60 1014.02 1013.90 1014.19 1014.34 1014.22 1014.17 1014.13 1014.94
1020.01 1019.83 1019.58 1019.36 1019.13 1018.91 1018.71 1018.49 1018.27 1018.05 1017.82 1017.58 1017.33 1017.02 1016.75 1016.47 1016.03 1015.19 1013.32 1013.31 1013.54 1013.92 1014.54 1015.02 1015.55 1015.80 1016.40 1016.78 1017.22 1017.71 1018.60 1017.84 1016.60 1015.97 1015.19 1014.64 1014.50 1014.09 1014.10 1014.05 1013.99 1013.87 1013.71 1014.32 1015.12
1020.10 1019.91 1019.69 1019.40 1019.15 1018.94 1018.67 1018.49 1018.33 1018.07 1017.79 1017.59 1017.30 1016.95 1016.59 1016.46 1015.86 1013.75 1012.90 1013.12 1013.48 1013.81 1014.21 1014.80 1015.37 1015.79 1016.49 1016.80 1017.09 1017.48 1017.46 1016.60 1015.74 1015.25 1015.01 1014.67 1014.26 1013.86 1014.03 1013.49 1013.27 1013.40 1013.23 1014.03 1014.89
1020.06 1019.91 1019.70 1019.48 1019.18 1018.83 1018.59 1018.34 1018.10 1017.90 1017.68 1017.43 1017.18 1016.83 1016.39 1016.29 1015.39 1013.20 1012.98 1013.10 1013.48 1013.91 1014.38 1014.99 1015.65 1016.11 1016.49 1016.75 1016.63 1017.25 1016.31 1016.00 1015.29 1014.93 1014.86 1014.66 1014.17 1013.94 1013.92 1011.88 1011.88 1012.12 1012.57 1013.22 1014.16
1019.98 1019.83 1019.60 1019.40 1019.21 1018.87 1018.53 1018.22 1017.89 1017.61 1017.41 1017.21 1016.99 1016.68 1016.22 1016.04 1014.40 1013.13 1013.23 1013.48 1013.83 1014.07 1014.53 1015.03 1015.53 1016.03 1016.35 1016.42 1016.56 1016.68 1015.99 1015.62 1015.00 1014.95 1014.77 1014.53 1013.79 1013.79 1013.13 1011.39 1011.45 1012.02 1012.39 1012.62 1013.16
1019.88 1019.69 1019.51 1019.27 1018.97 1018.67 1018.31 1017.98 1017.64 1017.35 1017.14 1016.99 1016.85 1016.80 1016.57 1015.53 1012.97 1013.14 1013.39 1013.74 1013.87 1014.25 1014.62 1014.85 1015.05 1015.25 1015.74 1015.84 1016.11 1015.66 1015.66 1015.47 1015.06 1014.75 1014.57 1014.42 1012.93 1013.44 1011.70 1010.74 1011.04 1011.50 1011.53 1011.66 1012.07
1019.78 1019.62 1019.40 1019.11 1018.83 1018.44 1017.99 1017.57 1017.12 1016.80 1016.62 1016.60 1016.67 1016.77 1016.49 1013.71 1012.89 1013.27 1013.50 1013.71 1013.85 1014.08 1014.45 1014.55 1014.72 1015.02 1015.33 1015.52 1015.41 1015.59 1015.91 1015.28 1014.60 1014.12 1014.34 1014.14 1013.73 1012.61 1010.21 1010.95 1010.81 1010.78 1010.86 1010.83 1010.78
1019.69 1019.52 1019.36 1019.12 1018.77 1018.32 1017.81 1017.28 1016.67 1016.12 1015.82 1015.98 1016.42 1016.55 1015.35 1013.09 1013.16 1013.47 1013.53 1013.80 1013.87 1014.02 1014.20 1014.36 1014.53 1015.05 1015.41 1015.48 1015.67 1016.04 1016.29 1015.73 1013.90 1013.97 1013.86 1014.03 1013.04 1010.03 1010.20 1010.68 1010.64 1010.40 1010.28 1010.15 1009.71
1019.53 1019.41 1019.23 1019.00 1018.65 1018.13 1017.48 1016.92 1016.41 1015.87 1015.72 1015.86 1016.38 1016.22 1014.67 1013.14 1013.27 1013.16 1013.24 1013.57 1013.89 1014.14 1014.25 1014.39 1014.83 1015.51 1015.90 1016.40 1016.67 1016.65 1016.36 1015.87 1014.66 1013.29 1013.82 1013.89 1012.26 1010.37 1010.02 1010.42 1010.34 1009.97 1009.64 1009.36 1008.83
1019.31 1019.18 1019.07 1018.86 1018.45 1017.89 1017.15 1016.45 1016.35 1016.10 1016.13 1016.15 1015.99 1016.37 1013.80 1013.03 1013.01 1013.30 1013.42 1013.57 1014.06 1014.41 1014.77 1015.20 1015.74 1016.17 1016.77 1016.90 1016.78 1016.24 1016.56 1015.80 1015.19 1013.54 1013.67 1013.41 1012.10 1011.05 1009.65 1010.13 1009.67 1009.02 1008.66 1008.18 1007.65
1019.13 1019.01 1018.93 1018.77 1018.48 1017.91 1017.27 1016.79 1016.95 1016.90 1016.43 1015.64 1015.52 1014.81 1013.59 1013.16 1013.02 1013.37 1013.46 1013.82 1014.30 1014.86 1015.33 1015.68 1016.49 1016.07 1014.98 1015.55 1015.62 1016.06 1016.10 1015.66 1014.40 1013.64 1013.70 1012.69 1011.60 1011.01 1009.94 1009.09 1008.17 1007.74 1007.31 1006.57 1005.93
1018.88 1018.89 1018.80 1018.61 1018.34 1017.93 1017.91 1018.46 1018.94 1019.24 1017.55 1015.26 1014.63 1014.34 1013.31 1013.19 1013.39 1013.45 1013.53 1013.99 1014.60 1015.33 1015.94 1016.60 1016.11 1015.36 1015.43 1015.80 1016.28 1016.22 1015.95 1015.24 1014.01 1013.42 1013.52 1012.46 1010.12 1010.07 1009.34 1008.06 1006.45 1005.95 1005.82 1005.22 1005.13
1018.68 1018.66 1018.67 1018.54 1018.28 1018.12 1018.70 1019.11 1019.07 1019.13 1018.51 1015.25 1014.12 1013.57 1012.98 1013.00 1013.16 1013.26 1013.64 1014.00 1014.48 1015.31 1015.60 1015.60 1015.11 1015.00 1015.69 1015.82 1016.07 1015.68 1016.15 1014.89 1014.54 1014.06 1013.48 1012.19 1008.93 1008.21 1007.16 1007.00 1005.99 1005.06 1004.81 1005.19 1005.31
1018.53 1018.56 1018.53 1018.37 1018.76 1018.80 1018.68 1018.55 1018.85 1019.15 1018.19 1015.05 1013.57 1012.77 1012.85 1012.97 1013.32 1013.39 1013.39 1013.65 1014.35 1014.55 1015.29 1015.14 1014.47 1014.72 1015.39 1015.74 1015.03 1014.87 1014.46 1014.43 1014.81 1015.28 1014.66 1013.31 1009.59 1008.06 1007.26 1006.36 1005.81 1004.58 1004.56 1004.56 1004.53
1018.39 1018.38 1018.40 1018.36 1018.82 1018.99 1018.81 1018.74 1018.93 1019.04 1017.09 1014.14 1013.34 1012.77 1012.76 1013.23 1013.87 1013.80 1013.73 1013.69 1014.00 1014.57 1015.05 1014.17 1014.31 1014.47 1014.75 1014.22 1014.55 1013.87 1014.10 1014.60 1014.83 1015.24 1014.96 1013.80 1012.90 1006.66 1005.84 1005.89 1005.07 1004.66 1004.14 1004.31 1004.89
1018.58 1018.10 1018.52 1018.55 1018.81 1018.94 1018.85 1018.67 1018.80 1018.88 1015.29 1013.49 1013.17 1013.04 1013.06 1013.29 1013.72 1014.00 1014.03 1014.16 1014.39 1014.43 1014.61 1014.24 1013.92 1013.77 1013.09 1013.05 1013.43 1013.40 1014.26 1015.13 1015.81 1015.75 1014.22 1012.59 1011.73 1007.38 1005.56 1005.13 1005.04 1004.57 1004.31 1004.81 1004.79
1018.85 1018.26 1018.56 1018.34 1018.54 1018.73 1019.14 1018.79 1018.75 1016.42 1014.11 1013.48 1013.32 1013.39 1013.55 1013.60 1013.73 1013.95 1014.28 1014.39 1014.80 1014.82 1014.40 1013.85 1013.31 1012.76 1012.77 1013.19 1013.79 1014.11 1014.47 1016.00 1016.04 1016.14 1013.05 1011.08 1010.36 1006.91 1004.82 1004.36 1004.23 1004.40 1004.35 1004.90 1005.60
1018.71 1018.69 1018.10 1018.24 1018.65 1018.82 1019.18 1018.67 1017.90 1015.47 1014.62 1013.81 1013.61 1013.59 1013.76 1013.54 1013.74 1014.23 1014.45 1014.61 1014.25 1014.63 1014.60 1013.94 1012.69 1012.23 1012.37 1012.45 1012.79 1013.88 1014.41 1015.15 1014.77 1014.42 1012.42 1011.36 1007.87 1005.11 1004.06 1003.61 1003.82 1004.44 1004.63 1005.23 1005.62
1018.60 1018.50 1018.37 1017.83 1018.34 1018.81 1019.01 1017.98 1015.92 1014.96 1013.96 1013.80 1013.82 1014.07 1014.00 1013.71 1013.86 1014.62 1014.84 1014.38 1013.78 1013.71 1013.87 1013.42 1012.55 1011.85 1011.81 1011.93 1012.32 1013.59 1013.89 1013.40 1013.56 1013.29 1013.25 1009.70 1005.91 1004.63 1003.74 1003.95 1004.32 1004.65 1005.14 1006.08 1005.89
1019.16 1018.58 1017.75 1016.85 1017.88 1018.52 1018.45 1016.18 1015.51 1014.54 1013.84 1013.80 1013.73 1014.19 1013.60 1013.53 1014.00 1014.13 1014.01 1013.47 1013.59 1013.25 1012.92 1013.11 1012.85 1011.92 1011.62 1012.12 1012.34 1012.62 1013.07 1013.46 1013.82 1013.52 1012.29 1009.25 1007.59 1004.38 1004.84 1005.19 1005.34 1005.65 1006.50 1006.80 1006.13
1019.37 1018.59 1017.01 1016.73 1017.59 1017.88 1016.96 1015.48 1014.96 1014.35 1014.74 1014.60 1013.60 1013.48 1013.30 1013.48 1013.56 1013.45 1013.62 1013.11 1013.23 1013.44 1013.47 1013.31 1013.94 1012.48 1012.19 1012.05 1012.12 1012.74 1012.81 1013.34 1013.44 1012.50 1011.02 1009.52 1006.51 1004.50 1004.87 1005.53 1006.33 1007.17 1007.24 1007.15 1007.22
1018.98 1018.96 1017.32 1017.01 1017.58 1016.76 1015.77 1015.26 1015.21 1014.61 1014.59 1014.32 1014.19 1013.69 1013.78 1013.84 1013.47 1013.68 1013.37 1013.23 1013.15 1013.37 1013.69 1014.21 1013.54 1013.47 1012.01 1011.52 1011.16 1011.56 1011.77 1012.31 1012.47 1011.19 1010.09 1008.55 1006.05 1003.73 1005.29 1006.04 1007.45 1008.64 1009.43 1009.31 1009.83
1019.64 1018.46 1017.38 1017.21 1017.07 1016.63 1015.62 1015.32 1015.33 1014.99 1014.67 1014.54 1014.34 1013.95 1014.15 1014.21 1014.05 1013.17 1013.16 1012.73 1013.43 1013.78 1013.71 1014.03 1013.90 1013.39 1012.07 1012.21 1012.17 1011.90 1011.50 1011.80 1011.80 1011.17 1010.02 1009.11 1007.24 1007.03 1006.07 1008.00 1010.69 1011.23 1011.15 1010.83 1010.98
1020.37 1019.32 1018.54 1017.69 1017.02 1017.16 1016.62 1015.71 1015.28 1014.78 1014.61 1014.59 1014.28 1014.63 1014.76 1014.61 1014.43 1013.84 1014.11 1014.22 1014.41 1015.03 1014.71 1014.82 1013.94 1014.17 1013.21 1013.04 1012.94 1012.99 1012.73 1012.87 1013.10 1012.13 1010.34 1009.73 1009.54 1010.08 1011.19 1011.55 1013.06 1013.21 1013.42 1012.96 1012.40
1020.61 1020.02 1019.40 1018.61 1017.77 1017.44 1017.40 1016.78 1015.83 1015.71 1015.29 1015.18 1015.27 1015.13 1015.56 1015.48 1015.47 1015.08 1015.20 1015.56 1015.34 1015.74 1015.83 1015.80 1014.99 1015.05 1014.61 1014.79 1014.80 1014.20 1014.01 1013.64 1013.01 1012.60 1012.21 1011.41 1011.24 1011.57 1013.55 1014.21 1014.02 1014.09 1014.30 1014.11 1013.27
1021.03 1020.87 1020.01 1019.45 1018.89 1018.57 1018.10 1017.21 1016.80 1016.11 1016.47 1015.90 1016.58 1015.96 1016.53 1016.77 1017.20 1017.33 1017.61 1017.38 1017.30 1017.53 1017.62 1017.22 1016.67 1016.48 1015.90 1015.26 1015.41 1014.61 1013.66 1012.98 1012.82 1012.23 1011.95 1012.61 1012.83 1014.49 1015.29 1015.54 1015.48 1015.01 1014.36 1014.00 1013.81
1021.61 1021.02 1020.59 1019.98 1019.59 1019.18 1018.78 1018.42 1018.20 1017.79 1017.79 1017.96 1018.32 1018.01 1017.75 1018.41 1018.64 1019.10 1019.63 1019.52 1019.36 1018.69 1018.92 1018.93 1018.50 1018.48 1017.05 1016.36 1016.47 1014.70 1013.17 1013.05 1012.54 1012.45 1013.41 1013.87 1014.73 1015.75 1015.65 1015.55 1015.59 1015.00 1014.81 1014.22 1013.74
Thickness
5703 5706 5708 5710 5713 5715 5716 5718 5720 5722 5724 5725 5728 5730 5732 5735 5737 5736 5734 5750 5750 5748 5744 5736 5733 5728 5725 5716 5713 5703 5680 5670 5686 5689 5706 5719 5716 5724 5727 5721 5720 5721 5725 5730 5719
5699 5701 5704 5706 5709 5711 5713 5715 5717 5718 5720 5721 5724 5726 5728 5731 5733 5732 5753 5751 5749 5745 5736 5729 5721 5720 5708 5708 5703 5691 5671 5683 5696 5699 5707 5715 5713 5717 5718 5716 5715 5718 5726 5722 5714
5694 5696 5698 5701 5704 5707 5709 5711 5712 5714 5716 5717 5719 5722 5725 5727 5727 5738 5751 5749 5745 5741 5736 5729 5720 5714 5704 5701 5696 5689 5685 5693 5703 5701 5705 5707 5708 5713 5708 5708 5711 5718 5727 5719 5711
5689 5691 5693 5696 5699 5702 5704 5707 5708 5710 5711 5713 5715 5718 5722 5724 5704 5743 5746 5744 5740 5736 5729 5719 5711 5701 5694 5690 5693 5686 5695 5697 5706 5704 5703 5700 5704 5705 5700 5728 5729 5725 5726 5720 5711
5683 5685 5688 5690 5692 5695 5698 5701 5704 5706 5707 5709 5710 5712 5718 5715 5719 5738 5738 5735 5732 5727 5718 5711 5703 5693 5688 5686 5687 5682 5692 5697 5699 5697 5693 5693 5699 5695 5704 5725 5722 5719 5718 5717 5713
5676 5679 5681 5684 5687 5689 5692 5695 5698 5700 5702 5703 5704 5705 5708 5702 5735 5732 5730 5727 5724 5720 5712 5707 5701 5697 5690 5689 5683 5690 5690 5690 5695 5696 5691 5688 5707 5697 5716 5719 5720 5715 5717 5716 5715
5669 5671 5674 5678 5681 5684 5687 5691 5695 5698 5699 5698 5697 5697 5698 5714 5731 5727 5722 5720 5718 5715 5706 5705 5701 5694 5690 5686 5688 5684 5676 5681 5691 5693 5681 5679 5680 5689 5725 5713 5714 5715 5714 5717 5718
5663 5665 5666 5669 5673 5677 5681 5686 5691 5696 5697 5695 5691 5690 5692 5725 5722 5718 5715 5712 5712 5710 5705 5702 5695 5686 5683 5683 5673 5670 5663 5662 5699 5685 5686 5678 5664 5729 5714 5703 5707 5708 5711 5712 5719
5655 5657 5659 5661 5665 5670 5675 5680 5684 5688 5689 5687 5683 5682 5687 5716 5712 5713 5711 5706 5702 5700 5696 5693 5684 5670 5669 5655 5645 5650 5638 5644 5663 5690 5675 5664 5664 5710 5713 5699 5698 5704 5707 5714 5720
5647 5649 5651 5653 5657 5662 5668 5674 5675 5678 5677 5676 5676 5671 5691 5699 5705 5703 5702 5699 5692 5686 5681 5674 5655 5648 5642 5644 5630 5635 5626 5636 5644 5684 5667 5653 5657 5678 5707 5692 5699 5710 5714 5714 5721
5639 5641 5642 5643 5646 5652 5659 5661 5660 5661 5665 5672 5669 5672 5683 5688 5692 5691 5692 5687 5681 5672 5659 5657 5638 5640 5669 5649 5655 5644 5633 5630 5653 5670 5653 5658 5661 5672 5691 5700 5708 5713 5716 5718 5724
5629 5630 5631 5634 5636 5640 5642 5637 5633 5629 5639 5661 5665 5663 5674 5676 5671 5675 5680 5672 5665 5652 5643 5635 5625 5652 5651 5643 5633 5629 5627 5631 5650 5659 5641 5647 5663 5670 5683 5696 5718 5720 5720 5725 5728
5620 5620 5621 5622 5626 5628 5623 5620 5618 5617 5614 5647 5658 5657 5664 5666 5660 5665 5663 5656 5652 5638 5637 5638 5641 5643 5637 5630 5630 5625 5614 5632 5628 5635 5635 5636 5661 5664 5689 5692 5706 5717 5719 5714 5712
5608 5609 5610 5612 5610 5608 5611 5611 5608 5606 5602 5627 5646 5654 5656 5656 5651 5652 5652 5649 5637 5634 5627 5623 5638 5635 5620 5617 5627 5624 5629 5629 5622 5613 5607 5628 5637 5658 5687 5696 5689 5708 5714 5707 5708
5597 5597 5599 5599 5596 5595 5597 5596 5595 5596 5587 5627 5625 5640 5642 5640 5635 5637 5639 5637 5628 5621 5621 5628 5624 5621 5615 5623 5616 5623 5628 5619 5617 5603 5595 5602 5596 5670 5672 5670 5681 5692 5699 5702 5699
5585 5588 5585 5586 5584 5581 5580 5582 5584 5581 5586 5614 5615 5616 5620 5622 5622 5620 5620 5621 5615 5612 5606 5609 5616 5614 5622 5623 5617 5623 5614 5600 5576 5585 5586 5608 5612 5638 5653 5664 5671 5679 5681 5677 5679
5571 5576 5573 5575 5577 5572 5568 5571 5568 5578 5604 5605 5602 5600 5602 5605 5605 5601 5601 5599 5594 5597 5593 5604 5604 5612 5614 5610 5605 5603 5593 5567 5565 5549 5599 5618 5599 5642 5662 5666 5669 5670 5668 5660 5652
5558 5559 5565 5562 5560 5560 5556 5561 5557 5575 5579 5588 5590 5588 5589 5591 5591 5584 5583 5584 5585 5586 5576 5582 5601 5600 5602 5604 5597 5580 5579 5562 5555 5556 5605 5598 5595 5639 5661 5668 5659 5653 5650 5645 5639
5544 5547 5551 5552 5548 5545 5546 5549 5567 5572 5581 5581 5579 5570 5573 5577 5578 5567 5565 5570 5581 5578 5577 5563 5574 5592 5589 5593 5592 5574 5564 5579 5560 5513 5520 5602 5636 5642 5649 5650 5642 5641 5636 5621 5622
5524 5531 5541 5545 5532 5528 5530 5552 5556 5573 5576 5567 5555 5557 5559 5561 5557 5555 5559 5566 5565 5562 5566 5562 5556 5575 5577 5574 5569 5563 5563 5551 5535 5531 5517 5580 5582 5624 5631 5628 5623 5612 5602 5600 5609
5507 5516 5529 5529 5519 5517 5524 5542 5550 5560 5549 5540 5545 5542 5551 5550 5548 5545 5543 5551 5556 5551 5546 5544 5530 5556 5555 5553 5558 5543 5539 5538 5534 5533 5533 5535 5572 5636 5612 5605 5599 5589 5583 5584 5589
5497 5495 5510 5510 5509 5513 5523 5534 5532 5537 5530 5525 5525 5529 5528 5532 5527 5527 5530 5536 5541 5535 5526 5523 5514 5511 5541 5552 5544 5538 5537 5536 5524 5529 5528 5539 5550 5631 5606 5596 5572 5548 5534 5533 5531
5475 5484 5494 5491 5493 5501 5516 5515 5513 5520 5518 5511 5508 5516 5518 5512 5504 5518 5521 5532 5521 5517 5513 5510 5496 5505 5508 5528 5510 5514 5522 5523 5523 5521 5513 5504 5526 5573 5587 5563 5489 5496 5501 5505 5504
5453 5457 5465 5471 5482 5479 5484 5496 5499 5509 5504 5499 5497 5496 5494 5492 5498 5494 5495 5498 5489 5487 5491 5489 5493 5496 5501 5516 5517 5494 5501 5493 5477 5475 5497 5494 5494 5508 5481 5474 5457 5460 5459 5465 5468
5432 5436 5442 5454 5459 5461 5463 5470 5475 5473 5482 5481 5474 5476 5473 5470 5472 5472 5478 5463 5468 5461 5458 5456 5467 5475 5473 5454 5455 5453 5455 5458 5462 5470 5457 5473 5481 5479 5427 5426 5440 5441 5436 5435 5442
5410 5415 5419 5417 5427 5430 5436 5450 5454 5467 5451 5464 5445 5459 5445 5442 5438 5444 5416 5424 5427 5426 5427 5423 5420 5425 5428 5449 5443 5438 5454 5463 5459 5463 5461 5457 5460 5403 5400 5403 5408 5412 5417 5421 5420
5387 5391 5399 5403 5406 5404 5408 5419 5416 5417 5412 5411 5402 5400 5404 5405 5394 5391 5389 5391 5391 5398 5400 5396 5386 5371 5396 5433 5400 5399 5442 5450 5449 5447 5415 5421 5389 5375 5378 5382 5383 5390 5391 5398 5401